Location: Ariel
(45.9570°N, 122.5700°W)
Time: 08:16:50
(UTC-07:00)

Altair - Pass Details

Date: 28 July 2019
Orbit: 1501 x 1683 km, 47.2° (Epoch: 22 August)

Event Time Altitude Azimuth Distance (km) Brightness Sun altitude
Rises 18:42:31 0° 289° (WNW) 4,650 11.5 19.3°
Reaches altitude 10° 18:46:28 10° 275° (W) 3,681 12.0 18.6°
Maximum altitude 18:52:48 21° 231° (SW) 2,936 9.8 17.5°
Drops below altitude 10° 18:59:16 10° 187° (S) 3,751 9.6 16.4°
Sets 19:03:22 0° 172° (S) 4,764 9.9 15.7°
